Stations météo

réclame
Mon MeteoGroup
Capo Bellavista, Italie (16550): Température de l'air & dewpoint: 12.10.2017 11:00:00 - 18.10.2017 11:00:00 (CEST)Capo Bellavista, Italie (16550): Vitesse du vent: 12.10.2017 11:00:00 - 18.10.2017 11:00:00 (CEST)Capo Bellavista, Italie (16550): Direction du vent: 12.10.2017 11:00:00 - 18.10.2017 11:00:00 (CEST)Capo Bellavista, Italie (16550): reduced air pressure: 12.10.2017 11:00:00 - 18.10.2017 11:00:00 (CEST)Capo Bellavista, Italie (16550): visibility: 12.10.2017 11:00:00 - 18.10.2017 11:00:00 (CEST)Capo Bellavista, Italie (16550): Ensoleillement: 12.10.2017 11:00:00 - 18.10.2017 11:00:00 (CEST)
Date & Time tt [°C] td [°C] ff [km/h] ff [knt] dd ppp [hPa] vv [km] sd [min]
18.10.2017 11:00:00 20,4 16,1 11 6 S 1019,8 30 60
18.10.2017 10:00:00 18,4 14,6 4 2 SW 1019,7 10 60
18.10.2017 09:00:00 16,0 11,6 13 7 WNW 1019,9 10 60
18.10.2017 08:00:00 16,2 11,6 4 2 W 1019,9 10 0
18.10.2017 07:00:00 16,6 12,2 8 4 WNW 1020,2 10 0
18.10.2017 06:00:00 16,8 13,9 11 6 SW 1022,2 10 -
18.10.2017 05:00:00 17,0 15,2 8 4 WSW 1022,3 10 -
18.10.2017 04:00:00 17,4 14,7 9 5 SW 1022,2 10 -
18.10.2017 03:00:00 17,4 15,0 11 6 WSW 1022,4 10 -
18.10.2017 02:00:00 17,6 14,3 11 6 SW 1022,3 10 -
18.10.2017 01:00:00 17,6 16,0 8 4 WSW 1022,3 10 -
18.10.2017 00:00:00 17,8 14,9 11 6 SW 1022,4 10 -
17.10.2017 23:00:00 18,0 15,6 9 5 WSW 1022,4 10 -
17.10.2017 22:00:00 18,0 16,3 9 5 W 1022,6 10 -
17.10.2017 21:00:00 18,8 17,1 5 3 W 1022,6 10 -
17.10.2017 20:00:00 19,8 17,4 15 8 SSW 1022,6 10 -
17.10.2017 19:00:00 20,0 17,0 11 6 S 1022,6 10 0
17.10.2017 18:00:00 23,2 17,0 5 3 S 1021,8 10 60
17.10.2017 17:00:00 22,8 16,6 4 2 S 1022,9 10 60
17.10.2017 16:00:00 18,8 12,3 5 3 SE 1022,9 10 60
17.10.2017 15:00:00 19,0 12,5 8 4 SE 1023,9 10 60
17.10.2017 14:00:00 20,0 12,7 9 5 S 1024,7 10 60
17.10.2017 13:00:00 20,0 12,2 8 4 SE 1025,6 10 60
17.10.2017 12:00:00 19,0 12,3 8 4 SE 1025,7 10 60
17.10.2017 11:00:00 20,8 16,4 5 3 S 1025,6 10 60
17.10.2017 10:00:00 18,8 15,3 4 2 E 1025,8 10 60
17.10.2017 09:00:00 16,0 9,9 13 7 WNW 1025,5 10 48
17.10.2017 08:00:00 16,2 11,6 13 7 WNW 1025,6 10 0
17.10.2017 07:00:00 15,4 10,0 18 10 WNW 1026,0 10 -
17.10.2017 06:00:00 16,0 11,6 11 6 WNW 1026,0 10 -
17.10.2017 05:00:00 18,0 17,0 11 6 WNW 1025,9 10 -
17.10.2017 04:00:00 18,0 16,5 4 2 SSE 1025,9 10 -
17.10.2017 03:00:00 18,2 14,9 8 4 SW 1026,3 10 -
17.10.2017 02:00:00 18,0 14,5 5 3 SW 1026,5 10 -
17.10.2017 01:00:00 17,0 15,4 16 9 NW 1026,9 10 -
17.10.2017 00:00:00 18,0 16,7 13 7 WNW 1026,8 10 -
16.10.2017 23:00:00 17,6 16,6 5 3 WNW 1026,9 10 -
16.10.2017 22:00:00 18,2 17,4 13 7 WNW 1026,9 10 -
16.10.2017 21:00:00 19,6 17,9 8 4 SSW 1027,2 10 -
16.10.2017 20:00:00 19,8 17,8 9 5 SW 1027,0 10 0
16.10.2017 19:00:00 21,0 18,4 8 4 S 1027,0 10 0
16.10.2017 18:00:00 22,0 18,2 4 2 S 1026,8 10 60
16.10.2017 17:00:00 22,8 18,1 4 2 S 1027,3 10 60
16.10.2017 16:00:00 23,0 17,9 9 5 SE 1027,5 10 60
16.10.2017 15:00:00 23,8 18,0 11 6 ESE 1027,6 10 60
16.10.2017 14:00:00 24,0 18,2 15 8 ESE 1027,8 10 60
16.10.2017 13:00:00 24,0 18,0 13 7 ESE 1028,5 10 60
16.10.2017 12:00:00 23,6 17,1 11 6 E 1028,1 10 60
16.10.2017 11:00:00 21,0 16,4 8 4 E 1028,0 10 60
16.10.2017 10:00:00 17,0 9,9 9 5 WNW 1028,2 10 60
16.10.2017 09:00:00 17,0 10,4 8 4 NW 1028,0 10 60
16.10.2017 08:00:00 17,6 16,3 5 3 ENE 1027,2 10 -
16.10.2017 07:00:00 16,8 16,0 5 3 NNE 1027,2 10 -
16.10.2017 06:00:00 16,4 10,0 9 5 NW 1027,2 10 -
16.10.2017 05:00:00 17,0 7,1 9 5 WNW 1027,4 10 -
16.10.2017 04:00:00 17,6 17,3 4 2 SW 1027,8 10 -
16.10.2017 03:00:00 17,2 12,5 5 3 WNW 1027,9 10 -
16.10.2017 02:00:00 16,6 12,7 11 6 WNW 1028,0 10 -
16.10.2017 01:00:00 17,2 15,2 9 5 WSW 1028,0 10 -
16.10.2017 00:00:00 18,2 16,9 9 5 SW 1027,9 10 -
15.10.2017 23:00:00 17,8 16,5 9 5 WNW 1028,0 10 -
15.10.2017 22:00:00 18,4 17,4 8 4 WSW 1027,9 10 -
15.10.2017 21:00:00 18,8 17,5 9 5 W 1027,9 10 -
15.10.2017 20:00:00 19,6 17,9 0 0 N 1028,1 10 -
15.10.2017 19:00:00 19,8 18,1 5 3 SE 1027,7 10 30
15.10.2017 18:00:00 21,4 17,8 5 3 ESE 1027,6 10 60
15.10.2017 17:00:00 22,0 18,4 8 4 ESE 1027,8 10 60
15.10.2017 16:00:00 22,0 18,4 13 7 E 1028,0 10 60
15.10.2017 15:00:00 23,0 18,3 13 7 E 1028,4 10 60
15.10.2017 14:00:00 23,0 17,5 13 7 E 1028,5 10 60
15.10.2017 13:00:00 23,4 17,2 13 7 E 1029,6 10 60
15.10.2017 12:00:00 23,6 16,9 9 5 E 1029,3 10 60
15.10.2017 11:00:00 22,6 16,4 5 3 E 1028,9 10 60
15.10.2017 10:00:00 18,0 13,5 5 3 NW 1028,6 10 60
15.10.2017 09:00:00 16,0 8,5 21 11 NW 1028,7 10 60
15.10.2017 08:00:00 16,0 8,5 15 8 WNW 1028,3 10 0
15.10.2017 07:00:00 16,4 9,8 13 7 NW 1028,1 10 -
15.10.2017 06:00:00 17,0 11,7 0 0 N 1027,9 10 -
15.10.2017 05:00:00 17,0 10,5 0 0 N 1027,9 10 -
15.10.2017 04:00:00 16,6 11,2 8 4 NW 1028,0 10 -
15.10.2017 03:00:00 16,6 11,2 9 5 NW 1028,1 10 -
15.10.2017 02:00:00 17,0 14,8 8 4 WNW 1028,0 10 -
15.10.2017 01:00:00 17,4 14,9 11 6 NW 1028,1 10 -
15.10.2017 00:00:00 17,6 15,7 11 6 NW 1028,1 10 -
14.10.2017 23:00:00 18,4 16,9 13 7 WNW 1027,9 10 -
14.10.2017 22:00:00 19,0 17,2 9 5 NW 1027,8 10 -
14.10.2017 21:00:00 20,0 17,3 5 3 WNW 1027,8 10 -
14.10.2017 20:00:00 20,4 17,4 0 0 N 1027,4 10 -
14.10.2017 19:00:00 21,6 17,4 5 3 E 1026,9 10 6
14.10.2017 18:00:00 22,6 17,5 8 4 E 1026,8 10 60
14.10.2017 17:00:00 22,8 17,1 9 5 E 1026,8 10 60
14.10.2017 16:00:00 23,0 17,0 11 6 E 1027,0 10 60
14.10.2017 15:00:00 23,2 17,2 13 7 E 1027,4 10 60
14.10.2017 14:00:00 23,4 17,8 15 8 E 1027,8 10 60
14.10.2017 13:00:00 23,8 17,9 18 10 E 1027,7 10 60
14.10.2017 12:00:00 23,6 17,0 15 8 E 1027,6 10 60
14.10.2017 11:00:00 22,2 17,1 11 6 ENE 1027,3 10 54
14.10.2017 10:00:00 18,8 14,4 4 2 N 1027,0 10 42
14.10.2017 09:00:00 17,2 12,6 16 9 NW 1027,0 10 0
14.10.2017 08:00:00 17,0 13,8 16 9 WNW 1026,8 10 0
14.10.2017 07:00:00 17,0 14,7 16 9 WNW 1026,7 10 -
14.10.2017 06:00:00 17,2 14,3 15 8 WNW 1026,8 10 -
14.10.2017 05:00:00 17,6 14,8 13 7 WNW 1026,7 10 -
14.10.2017 04:00:00 - - - - - - - -
14.10.2017 03:00:00 - - - - - - - -
14.10.2017 02:00:00 18,4 17,5 11 6 WNW 1026,9 10 -
14.10.2017 01:00:00 19,2 18,0 5 3 WNW 1026,8 10 -
14.10.2017 00:00:00 20,0 17,0 0 0 N 1026,8 10 -
13.10.2017 23:00:00 19,6 17,5 4 2 W 1026,5 10 -
13.10.2017 22:00:00 19,8 17,7 4 2 W 1026,0 10 -
13.10.2017 21:00:00 20,0 17,9 5 3 WSW 1025,7 10 -
13.10.2017 20:00:00 20,8 18,1 0 0 N 1025,7 10 -
13.10.2017 19:00:00 21,2 17,6 0 0 N 1025,8 10 12
13.10.2017 18:00:00 22,8 18,4 8 4 E 1025,6 10 54
13.10.2017 17:00:00 23,2 18,2 11 6 E 1025,9 10 60
13.10.2017 16:00:00 23,6 17,7 15 8 ESE 1026,3 10 60
13.10.2017 15:00:00 24,0 17,1 13 7 NNW 1026,4 10 60
13.10.2017 14:00:00 24,2 17,4 18 10 E 1026,4 10 60
13.10.2017 13:00:00 25,4 15,7 16 9 E 1026,6 10 60
13.10.2017 12:00:00 25,6 15,2 13 7 ESE 1026,5 10 60
13.10.2017 11:00:00 24,2 15,0 9 5 E 1026,5 10 60
13.10.2017 10:00:00 23,2 14,8 8 4 E 1026,6 10 60
13.10.2017 09:00:00 18,0 12,5 4 2 NW 1026,3 30 30
13.10.2017 08:00:00 17,8 12,3 11 6 WNW 1026,1 10 0
13.10.2017 07:00:00 17,6 12,3 13 7 WNW 1025,9 10 0
13.10.2017 06:00:00 17,0 14,7 11 6 NW 1028,1 10 -
13.10.2017 05:00:00 17,2 13,7 11 6 N 1027,9 10 -
13.10.2017 04:00:00 17,6 14,1 11 6 NNW 1027,6 10 -
13.10.2017 03:00:00 17,8 14,5 9 5 NNW 1027,4 10 -
13.10.2017 02:00:00 18,2 15,8 11 6 WNW 1027,2 10 -
13.10.2017 01:00:00 18,6 16,9 13 7 - 1026,8 10 -
13.10.2017 00:00:00 18,8 17,0 11 6 NNW 1026,5 10 -
12.10.2017 23:00:00 19,0 17,5 9 5 NNW 1026,3 10 -
12.10.2017 22:00:00 20,0 18,5 9 5 SE 1025,7 10 -
12.10.2017 21:00:00 20,2 18,5 9 5 SE 1025,6 10 -
12.10.2017 20:00:00 20,8 18,4 11 6 S 1025,4 10 -
12.10.2017 19:00:00 21,0 18,4 15 8 S 1025,4 10 24
12.10.2017 18:00:00 23,6 18,0 11 6 S 1025,2 10 60
12.10.2017 17:00:00 24,4 18,6 8 4 S 1025,2 10 60
12.10.2017 16:00:00 24,0 18,2 4 2 S 1025,3 10 60
12.10.2017 15:00:00 25,0 17,0 5 3 SSE 1025,5 10 60
12.10.2017 14:00:00 25,8 16,4 9 5 SE 1025,6 10 60
12.10.2017 13:00:00 25,2 17,7 15 8 ESE 1025,8 10 60
12.10.2017 12:00:00 25,0 18,0 13 7 ESE 1025,7 10 60
12.10.2017 11:00:00 23,2 17,4 13 7 E 1025,7 10 60

tt = Température de l'air
td = dewpoint
ff = Vitesse du vent
dd = Direction du vent
ppp = reduced air pressure
vv = visibility
sd = Ensoleillement

stations d'obs. à proximité